Epoch 2023 Dec. 2.0 TT = JDT 2460280.5 T 2023 Nov. 15.27662 TT Rudenko q 10.3129341 (2000.0) P Q z +0.0001249 Peri. 280.69956 +0.15949880 +0.96239774 +/-0.0000018 Node 347.23334 +0.26394335 -0.25620390 e 0.9987115 Incl. 84.29889 -0.95125919 +0.09027820 From 95 observations 2015 Jan. 22-2020 Dec. 14, mean residual 0".5.
m1 = 2.0 + 5 log d + 10.0 log r